Flag for U.S.A. Weather past 2 weeks in Austin, Texas, U.S.A.

Now
42 °F

Overcast.


Feels Like: 37 °F
Forecast: 34 / 46 °F
Wind: 8 mph from North

Location: Camp Mabry / Austin City

Current Time: Dec 27, 2014 at 10:39:04 PM

Latest Report: Dec 27, 2014 at 9:51 PM


Visibility: 10 mi

Pressure: 30.29 "Hg

Humidity: 73%

Dew point: 34 °F

Location of AustinLocation

Historic Weather in Austin — Graph

°F

Austin temperature yesterday

Maximum temperature yesterday: 72 °F (at 3:51 PM)
Minimum temperature yesterday: 53 °F (at 4:51 AM)
Average temperature yesterday: 62 °F

Past Weeks' High & Low Weather Summary

 TemperatureHumidityPressure
High74 °F (Dec 22, 12:51 PM)100% (Dec 18, 2:51 AM)30.37 "Hg (Dec 18, 2:51 AM)
Low34 °F (Dec 25, 1:51 AM)23% (Dec 15, 2:51 PM)29.60 "Hg (Dec 22, 3:51 PM)
Average56 °F74%30.04 "Hg
* Reported Dec 12 8:51 PM — Dec 27 8:51 PM, Austin, Weather by CustomWeather, © 2014

Note: Actual official high and low records may vary slightly from our data, if they occured in-between our weather recording intervals... More about our weather records

Advertising

Austin weather history for previous 24 hours

 ConditionsComfort  
Time TempWeatherWind HumidityBarometerVisibility
8:51 PM
Dec 27
42 °FOvercast.9 mph73%30.28 "Hg10 mi
7:51 PM43 °FOvercast.5 mph74%30.26 "Hg10 mi
6:51 PM44 °FOvercast.9 mph73%30.23 "Hg10 mi
5:51 PM46 °FOvercast.10 mph68%30.20 "Hg10 mi
4:51 PM46 °FOvercast.8 mph71%30.19 "Hg10 mi
3:51 PM46 °FOvercast.10 mph73%30.17 "Hg10 mi
2:51 PM46 °FOvercast.10 mph79%30.15 "Hg10 mi
1:51 PM45 °FOvercast.12 mph82%30.15 "Hg10 mi
1:04 PM45 °FLight rain. Overcast.9 mph82%30.16 "Hg10 mi
12:51 PM46 °FLight rain. Overcast.13 mph83%30.16 "Hg10 mi
11:51 AM47 °FLight rain. Overcast.6 mph74%30.18 "Hg8 mi
10:51 AM47 °FOvercast.9 mph80%30.16 "Hg10 mi
9:51 AM48 °FLight rain. Overcast.9 mph80%30.14 "Hg10 mi
8:51 AM49 °FLight rain. Overcast.5 mph84%30.11 "Hg6 mi
7:51 AM54 °FLight rain. Overcast.14 mph86%30.06 "Hg10 mi
6:51 AM65 °FOvercast.6 mph91%30.01 "Hg7 mi
5:51 AM65 °FFog.No wind94%29.98 "Hg6 mi
4:51 AM64 °FFog.No wind94%29.96 "Hg5 mi
3:51 AM65 °FFog.No wind94%29.93 "Hg6 mi
2:51 AM64 °FFog.3 mph94%29.92 "Hg6 mi
1:51 AM66 °FOvercast.5 mph90%29.93 "Hg7 mi
12:51 AM66 °FFog.6 mph90%29.94 "Hg6 mi
12:00 AM66 °FFog.5 mph90%29.96 "Hg6 mi
10:51 PM
Dec 26
65 °FFog.5 mph91%29.96 "Hg6 mi
Weather by CustomWeather, © 2014

See weather overviewHow to use our weather pages